Location: Utrecht
(52.0907°N, 5.1214°E)
Time: 06:54:06
(UTC+02:00)

NANOSAT C BR1 - Pass Details

Date: 04 July 2022
Orbit: 584 x 599 km, 98.0° (Epoch: 07 August)

Event Time Altitude Azimuth Distance (km) Brightness Sun altitude
Rises 03:35:40 0° 18° (NNE) 2,853 ? -11.1°
Reaches altitude 10° 03:37:53 10° 23° (NNE) 1,948 ? -11.0°
Maximum altitude 03:42:01 51° 100° (E) 760 ? -10.7°
Enters shadow 03:46:06 10° 177° (S) 1,931 ? -10.4°
